George, South Africa

3:22 PM SAST on July 23, 2017 (GMT +0200)
George

Weather History for FAGG - July, 2013

Change the Weather History Date:

Sunday, July 21, 2013

  Actual Average Record
Temperature  
Mean Temperature 56 °F -  
Max Temperature 65 °F 64 °F 78 °F (2010)
Min Temperature 46 °F 45 °F 40 °F (2014)
Degree Days  
Heating Degree Days 9    
Growing Degree Days 6 (Base 50)    
Moisture  
Dew Point 46 °F    
Average Humidity 71    
Maximum Humidity 87    
Minimum Humidity 45    
Precipitation  
Precipitation 0.00 in - - ()
Sea Level Pressure  
Sea Level Pressure 30.35 in    
Wind  
Wind Speed 6 mph ()    
Max Wind Speed 12 mph    
Max Gust Speed -    
Visibility 9.0 miles    
Events      
Averages and records for this station are not official NWS values.
T = Trace of Precipitation, MM = Missing Value Source: Averaged Metar Reports

Daily Weather History Graph

Daily Weather History Graph

Search for Another Location

Airport or City:

Trip Planner

Search our weather history database for the weather conditions in past years. The results will help you decide how hot, cold, wet, or windy it might be!

Date:

Astronomy

Jul. 21, 2013 Rise Set
Actual Time 7:30 AM SAST 5:43 PM SAST
Civil Twilight 7:03 AM SAST 6:10 PM SAST
Nautical Twilight 6:33 AM SAST 6:40 PM SAST
Astronomical Twilight 6:03 AM SAST 7:10 PM SAST
Moon 4:34 PM SAST (7/21) 5:52 AM SAST (7/21)
Length of Visible Light 11h 06m
Length of Day
10h 12m
Waxing Gibbous, 97% of the Moon is Illuminated
Jul 21
Waxing Gibbous
Jul 22
Full
Jul 29
Last Quarter
Aug 6
New
Aug 14
First Quarter

Hourly Weather History & Observations

Time (SAST) Temp. Windchill Dew Point Humidity Pressure Visibility Wind Dir Wind Speed Gust Speed Precip Events Conditions
12:00 AM 55.4 °F - 46.4 °F 72% 30.39 in 6.2 mi WNW 11.5 mph - N/A   Mostly Cloudy
1:00 AM 53.6 °F - 46.4 °F 77% 30.39 in 6.2 mi WNW 9.2 mph - N/A   Mostly Cloudy
2:00 AM 51.8 °F - 46.4 °F 82% 30.39 in 6.2 mi WNW 6.9 mph - N/A   Mostly Cloudy
3:00 AM 50.0 °F - 46.4 °F 87% 30.39 in - NW 5.8 mph - N/A   Clear
5:00 AM 49 °F - 44 °F 77% 30.40 in 12 mi WNW 8.1 mph - -   Scattered Clouds
5:00 AM 50.0 °F - 44.6 °F 82% 30.39 in 6.2 mi WNW 6.9 mph - N/A   Partly Cloudy
6:00 AM 50.0 °F - 42.8 °F 76% 30.39 in 6.2 mi NW 4.6 mph - N/A   Partly Cloudy
7:00 AM 48.2 °F - 42.8 °F 82% 30.39 in 6.2 mi NW 4.6 mph - N/A   Partly Cloudy
8:00 AM 49 °F - 42 °F 69% 30.43 in 12 mi NNW 4.6 mph - -   Scattered Clouds
8:00 AM 48.2 °F - 42.8 °F 82% 30.42 in 6.2 mi NNW 4.6 mph - N/A   Partly Cloudy
9:00 AM 53.6 °F - 46.4 °F 77% 30.42 in - North 3.5 mph - N/A   Clear
10:00 AM 59.0 °F - 46.4 °F 63% 30.42 in 6.2 mi NW 5.8 mph - N/A   Partly Cloudy
11:00 AM 60 °F - 46 °F 50% 30.43 in 19 mi WNW 4.6 mph - -   Scattered Clouds
11:00 AM 60.8 °F - 46.4 °F 59% 30.42 in 6.2 mi WNW 5.8 mph - N/A   Partly Cloudy
12:00 PM 62.6 °F - 46.4 °F 55% 30.39 in - Variable 3.5 mph - N/A   Clear
1:00 PM 64.4 °F - 46.4 °F 52% 30.36 in - Variable 2.3 mph - N/A   Clear
2:00 PM 63 °F - 47 °F 45% 30.32 in 12 mi SSE 6.9 mph - -  
2:00 PM 62.6 °F - 48.2 °F 59% 30.33 in - SE 6.9 mph - N/A   Clear
3:00 PM 62.6 °F - 46.4 °F 55% 30.30 in - South 5.8 mph - N/A   Clear
4:00 PM 62.6 °F - 48.2 °F 59% 30.30 in - SE 5.8 mph - N/A   Clear
5:00 PM 60 °F - 48 °F 54% 30.31 in 12 mi SSE 5.8 mph - -  
5:00 PM 59.0 °F - 48.2 °F 67% 30.30 in - SSE 5.8 mph - N/A   Clear
6:00 PM 55.4 °F - 46.4 °F 72% 30.27 in - SE 5.8 mph - N/A   Clear
7:00 PM 51.8 °F - 44.6 °F 76% 30.27 in - East 4.6 mph - N/A   Clear
8:00 PM 50 °F - 45 °F 76% 30.28 in 12 mi North 3.5 mph - -  
8:00 PM 50.0 °F - 44.6 °F 82% 30.27 in - North 3.5 mph - N/A   Clear
9:00 PM 48.2 °F - 44.6 °F 87% 30.27 in - NW 3.5 mph - N/A   Clear
10:00 PM 48.2 °F - 44.6 °F 87% 30.24 in - North 3.5 mph - N/A   Clear
11:00 PM 46.4 °F 45.2 °F 42.8 °F 87% 30.24 in - North 3.5 mph - N/A   Clear